[[{"header":{"parameterUnit":"m.s-1","parameterCategory":2,"la1":30.2991,"la2":30.254,"lo1":-89.0895,"lo2":-89.0444,"dy":0.0017,"dx":0.0017,"nx":28,"ny":28,"refTime":"2026-02-01T03:00:00:Z","depth":"0","parameterNumber":2,"parameterNumberName":"U-component_of_CURRENTS"},"data":[0,0,0,0,0,0,0,0,0,0,0,0,0,0,0,0,0,0,0,0,0,0,0,0,0,0,0,0,0,0,0,0,0,0,0,0,0,0,0,0,0,0,0,0,0,0,0,0,0,0,0,0,0,0,0,0,0,0,-0.2397,-0.2398,0,-0.2451,-0.2452,-0.2452,-0.2435,-0.2434,-0.2433,-0.2431,-0.2486,-0.2489,-0.2491,0,0,0,0,0,0,0,0,0,0,0,0,0,-0.2364,-0.2364,-0.2397,-0.2398,-0.2399,-0.2451,-0.2452,-0.2452,-0.2435,-0.2434,-0.2432,-0.2431,-0.2485,-0.2488,-0.2492,0,0,0,0,0,0,0,0,0,0,0,0,0,-0.2394,-0.2364,-0.2397,-0.2396,-0.2396,-0.2451,-0.2452,-0.2453,-0.2435,-0.2434,-0.2432,-0.243,-0.2484,-0.2488,-0.2492,-0.2552,0,0,-0.2504,-0.2505,0,0,0,0,0,0,0,0,-0.2393,-0.2396,-0.2395,-0.2396,-0.2396,-0.2434,-0.246,-0.2486,-0.2436,-0.2421,-0.2431,-0.2429,-0.247,-0.2475,-0.249,-0.2555,-0.2557,-0.2504,-0.2507,-0.2508,-0.2509,0,0,0,0,0,0,0,-0.239,-0.2394,-0.2419,-0.2396,-0.2397,-0.2421,-0.2423,-0.2465,-0.2456,-0.2422,-0.2421,-0.2427,-0.247,-0.2486,-0.2491,-0.2558,-0.2504,-0.2507,-0.251,-0.2511,-0.2653,-0.2654,0,0,0,0,0,0,-0.238,-0.2392,-0.2418,-0.2421,-0.2389,-0.2423,-0.2425,-0.2424,-0.2455,-0.2458,-0.2428,-0.2426,-0.248,-0.2486,-0.2493,-0.2541,-0.2508,-0.2512,-0.2514,-0.2651,-0.2653,-0.2655,0,0,0,0,0,0,-0.2379,-0.2382,-0.2415,-0.2407,-0.2413,-0.2424,-0.2425,-0.2426,-0.2434,-0.2459,-0.2462,-0.2432,-0.2479,-0.2487,-0.2526,-0.2544,-0.2514,-0.2517,-0.265,-0.2652,-0.2654,-0.2654,0,0,0,0,0,0,-0.2378,-0.2381,-0.2379,-0.2406,-0.2413,-0.2435,-0.2427,-0.2429,-0.244,-0.2437,-0.2465,-0.2468,-0.2478,-0.252,-0.253,-0.2548,-0.252,-0.2648,-0.2651,-0.2653,-0.2652,-0.2655,-0.2659,0,0,0,0,0,-0.2376,-0.2375,-0.2379,-0.2382,-0.2409,-0.2435,-0.244,-0.2444,-0.2442,-0.2445,-0.2468,-0.2467,-0.2544,-0.2525,-0.2536,-0.2556,-0.2647,-0.265,-0.2653,-0.265,-0.2655,-0.2658,0,0,0,0,0,0,-0.2362,-0.2374,-0.2378,-0.2381,-0.2402,-0.2431,-0.2435,-0.2447,-0.2471,-0.2468,-0.249,-0.2496,-0.2537,-0.2553,-0.2532,-0.2606,-0.2594,-0.26,-0.2589,-0.2593,-0.2596,-0.2591,-0.2523,0,0,0,0,0,-0.236,-0.2355,-0.2381,-0.2383,-0.2392,-0.2418,-0.243,-0.2437,-0.2462,-0.247,-0.249,-0.2522,-0.2565,-0.258,-0.2615,-0.266,-0.2625,-0.2681,-0.2684,-0.2687,-0.2692,-0.2658,-0.2657,-0.2665,-0.2665,-0.2665,0,0,-0.2354,-0.2361,-0.2359,-0.2379,-0.2395,-0.2418,-0.242,-0.2437,-0.2463,-0.2476,-0.251,-0.2537,-0.2581,-0.2625,-0.2645,-0.2636,-0.2659,-0.2691,-0.2692,-0.2696,-0.2661,-0.266,-0.2658,-0.2668,-0.2667,-0.2667,0,0,-0.2345,-0.2349,-0.2345,-0.2365,-0.2389,-0.2413,-0.2417,-0.2448,-0.2464,-0.2507,-0.2528,-0.2562,-0.2618,-0.2651,-0.2679,-0.2728,-0.268,-0.2739,-0.275,-0.2717,-0.2715,-0.2713,-0.2624,-0.2614,-0.2737,-0.2737,-0.2737,0,-0.2341,-0.2341,-0.2351,-0.2363,-0.238,-0.241,-0.2426,-0.2461,-0.2502,-0.2528,-0.2511,-0.2601,-0.2633,-0.2702,-0.2718,-0.2735,-0.2683,-0.2726,-0.2717,-0.2715,-0.2712,-0.2623,-0.2612,-0.2737,-0.2737,-0.2737,-0.2737,0,-0.2336,-0.2342,-0.2344,-0.2367,-0.239,-0.2407,-0.2455,-0.2488,-0.251,-0.2543,-0.2598,-0.2633,-0.2684,-0.2702,-0.2729,-0.2752,-0.2706,-0.2722,-0.2696,-0.2711,-0.2616,-0.2604,-0.2738,-0.2738,-0.2738,-0.2738,0,0,-0.2316,-0.2334,-0.2336,-0.2349,-0.2392,-0.2413,-0.2469,-0.2527,-0.2564,-0.2597,-0.2623,-0.2709,-0.2717,-0.275,-0.2777,-0.2756,-0.2691,-0.2732,-0.273,-0.2624,-0.256,-0.2474,-0.2452,-0.2692,-0.2691,-0.269,-0.2483,0,-0.2311,-0.232,-0.2339,-0.2369,-0.2381,-0.2434,-0.2486,-0.2547,-0.2586,-0.2619,-0.2663,-0.2699,-0.274,-0.2749,-0.2744,-0.2707,-0.2668,-0.2742,-0.258,-0.2575,-0.2481,-0.2441,-0.2394,-0.2202,-0.2471,-0.2469,-0.2468,0,-0.2303,-0.231,-0.2323,-0.2371,-0.2383,-0.2411,-0.2489,-0.2536,-0.261,-0.2639,-0.2681,-0.2702,-0.2715,-0.2723,-0.2656,-0.2693,-0.2637,-0.2591,-0.2582,-0.2499,-0.2469,-0.2243,-0.2171,-0.2096,-0.245,-0.2451,-0.2453,0,-0.2276,-0.2306,-0.231,-0.2325,-0.2386,-0.2412,-0.245,-0.2534,-0.2577,-0.2629,-0.2632,-0.267,-0.2635,-0.2606,-0.2547,-0.2586,-0.2414,-0.2455,-0.2319,-0.2309,-0.224,-0.2226,-0.2066,-0.2394,-0.2394,-0.2395,-0.2396,0,-0.2264,-0.2272,-0.2294,-0.23,-0.2327,-0.2378,-0.2421,-0.2481,-0.2538,-0.2548,-0.2623,-0.2595,-0.2599,-0.2522,-0.2495,-0.2344,-0.2371,-0.2297,-0.2254,-0.2234,-0.2224,-0.2134,-0.2079,-0.2387,-0.2389,-0.239,-0.2392,0,-0.2232,-0.2246,-0.2256,-0.2298,-0.2309,-0.2324,-0.2386,-0.2416,-0.248,-0.2475,-0.248,-0.2494,-0.2378,-0.2359,-0.2249,-0.2231,-0.2025,-0.2079,-0.2027,-0.1983,-0.1809,-0.1755,-0.1461,-0.1366,-0.1884,-0.1881,-0.1878,0,-0.2214,-0.221,-0.2233,-0.2226,-0.2235,-0.2265,-0.2286,-0.2375,-0.2391,-0.2391,-0.2359,-0.2272,-0.2195,-0.201,-0.196,-0.1857,-0.182,-0.1752,-0.1853,-0.1762,-0.1672,-0.1619,-0.1559,-0.1734,-0.173,-0.1727,-0.1725,0,-0.2173,-0.2177,-0.2176,-0.2154,-0.2156,-0.2173,-0.219,-0.2201,-0.226,-0.2248,-0.215,-0.2081,-0.1928,-0.179,-0.1687,-0.1645,-0.1619,-0.1683,-0.1617,-0.155,-0.1452,-0.1354,-0.1873,-0.1697,-0.17,-0.1702,-0.1704,-0.1705,-0.2129,-0.2108,-0.2087,-0.206,-0.2062,-0.2034,-0.1992,-0.2014,-0.1995,-0.1924,-0.1928,-0.1789,-0.1699,-0.1548,-0.1481,-0.1353,-0.1352,-0.1341,-0.1277,-0.1228,-0.1156,-0.1583,-0.136,-0.1361,-0.1361,-0.1362,-0.1362,0,-0.2048,-0.2016,-0.1987,-0.1931,-0.1872,-0.1913,-0.1888,-0.1818,-0.1719,-0.1711,-0.1628,-0.1492,-0.1364,-0.1287,-0.1156,-0.1018,-0.0987,-0.0938,-0.0892,-0.085,-0.1258,-0.1281,-0.0997,-0.0997,-0.0997,-0.0998,-0.0998,-0.0998,-0.2,-0.1927,-0.1895,-0.1743,-0.1695,-0.1568,-0.1516,-0.1441,-0.1411,-0.1292,-0.1221,-0.1206,-0.1165,-0.0943,-0.077,-0.0731,-0.0576,-0.05,-0.0436,-0.0793,-0.083,-0.0864,-0.0878,-0.0514,-0.0513,-0.0062,-0.0058,-0.0055]},{"header":{"parameterUnit":"m.s-1","parameterCategory":2,"la1":30.2991,"la2":30.254,"lo1":-89.0895,"lo2":-89.0444,"dy":0.0017,"dx":0.0017,"nx":28,"ny":28,"refTime":"2026-02-01T03:00:00:Z","depth":"0","parameterNumber":3,"parameterNumberName":"V-component_of_CURRENTS"},"data":[0,0,0,0,0,0,0,0,0,0,0,0,0,0,0,0,0,0,0,0,0,0,0,0,0,0,0,0,0,0,0,0,0,0,0,0,0,0,0,0,0,0,0,0,0,0,0,0,0,0,0,0,0,0,0,0,0,0,-0.0786,-0.0786,0,-0.0803,-0.0803,-0.0803,-0.078,-0.0779,-0.0779,-0.0778,-0.0674,-0.0672,-0.067,0,0,0,0,0,0,0,0,0,0,0,0,0,-0.0732,-0.0733,-0.0786,-0.0786,-0.0787,-0.0803,-0.0803,-0.0803,-0.078,-0.0779,-0.0778,-0.0778,-0.0674,-0.0672,-0.0669,0,0,0,0,0,0,0,0,0,0,0,0,0,-0.0752,-0.0734,-0.0786,-0.0778,-0.0777,-0.0803,-0.0803,-0.0803,-0.078,-0.0779,-0.0778,-0.0777,-0.0675,-0.0672,-0.0669,-0.0672,0,0,-0.0659,-0.0658,0,0,0,0,0,0,0,0,-0.0751,-0.0754,-0.0779,-0.0778,-0.0778,-0.0789,-0.0746,-0.0754,-0.0781,-0.0778,-0.0778,-0.0777,-0.0702,-0.0697,-0.0703,-0.0667,-0.0663,-0.0659,-0.0657,-0.0656,-0.0655,0,0,0,0,0,0,0,-0.075,-0.0753,-0.0792,-0.0779,-0.0779,-0.0773,-0.0775,-0.0748,-0.0743,-0.0778,-0.0777,-0.0781,-0.0701,-0.0706,-0.07,-0.0661,-0.0659,-0.0656,-0.0655,-0.0653,-0.0599,-0.06,0,0,0,0,0,0,-0.0751,-0.0752,-0.0791,-0.0792,-0.0763,-0.0775,-0.0777,-0.0786,-0.0746,-0.074,-0.0782,-0.078,-0.0712,-0.0704,-0.0696,-0.069,-0.0656,-0.0653,-0.0651,-0.0599,-0.0599,-0.06,0,0,0,0,0,0,-0.075,-0.0755,-0.079,-0.0773,-0.0777,-0.0777,-0.0788,-0.0787,-0.0788,-0.075,-0.0742,-0.0784,-0.0711,-0.0701,-0.0678,-0.0685,-0.0652,-0.0649,-0.0598,-0.0599,-0.06,-0.068,0,0,0,0,0,0,-0.0749,-0.0755,-0.0761,-0.0773,-0.0778,-0.0807,-0.0789,-0.0788,-0.0793,-0.079,-0.0749,-0.0739,-0.0709,-0.0684,-0.0675,-0.068,-0.0646,-0.0598,-0.0599,-0.0599,-0.0677,-0.0683,-0.0689,0,0,0,0,0,-0.0747,-0.0759,-0.0762,-0.0766,-0.0788,-0.0808,-0.081,-0.0805,-0.0794,-0.0801,-0.0776,-0.074,-0.0682,-0.0682,-0.0672,-0.0676,-0.0597,-0.0598,-0.0599,-0.0674,-0.0682,-0.0689,0,0,0,0,0,0,-0.0735,-0.0759,-0.0761,-0.0779,-0.0794,-0.0804,-0.0811,-0.0809,-0.0798,-0.079,-0.075,-0.0739,-0.0721,-0.0689,-0.0689,-0.0662,-0.0632,-0.0631,-0.0692,-0.0699,-0.0705,-0.0714,-0.0644,0,0,0,0,0,-0.0739,-0.0756,-0.0775,-0.0789,-0.0798,-0.0806,-0.0813,-0.0813,-0.0807,-0.0802,-0.0777,-0.0745,-0.072,-0.0702,-0.0675,-0.0663,-0.0634,-0.0657,-0.0663,-0.0669,-0.0669,-0.0636,-0.0639,-0.0603,-0.0603,-0.0603,0,0,-0.0737,-0.0753,-0.0761,-0.0788,-0.0798,-0.0825,-0.0807,-0.0822,-0.0842,-0.079,-0.08,-0.0765,-0.0722,-0.0712,-0.07,-0.0684,-0.0667,-0.067,-0.0675,-0.0672,-0.0637,-0.0641,-0.0644,-0.0604,-0.0604,-0.0604,0,0,-0.0749,-0.0759,-0.078,-0.08,-0.0823,-0.0833,-0.084,-0.0854,-0.0858,-0.0867,-0.0832,-0.0803,-0.0774,-0.0745,-0.0726,-0.0747,-0.0702,-0.0736,-0.0772,-0.0741,-0.0744,-0.0746,-0.0731,-0.0731,-0.0737,-0.0738,-0.0738,0,-0.0745,-0.078,-0.0788,-0.0818,-0.0841,-0.0841,-0.0873,-0.0884,-0.0889,-0.0889,-0.0876,-0.0827,-0.0791,-0.0768,-0.078,-0.076,-0.0742,-0.0751,-0.075,-0.0751,-0.0751,-0.0735,-0.0734,-0.0742,-0.0741,-0.0741,-0.074,0,-0.0776,-0.0809,-0.0823,-0.0867,-0.0889,-0.0916,-0.0938,-0.0953,-0.0955,-0.0953,-0.0935,-0.0891,-0.0857,-0.0843,-0.0821,-0.0806,-0.0793,-0.0764,-0.0735,-0.076,-0.0741,-0.0739,-0.0747,-0.0746,-0.0745,-0.0744,0,0,-0.0765,-0.0833,-0.0841,-0.0878,-0.092,-0.0945,-0.0981,-0.1009,-0.1021,-0.1011,-0.1013,-0.0975,-0.0937,-0.0913,-0.0871,-0.0845,-0.0842,-0.0816,-0.0813,-0.0809,-0.079,-0.0837,-0.0839,-0.0817,-0.0817,-0.0817,-0.0782,0,-0.0792,-0.0861,-0.0886,-0.0956,-0.0997,-0.1018,-0.1056,-0.1075,-0.1071,-0.107,-0.1022,-0.0998,-0.0969,-0.0944,-0.0919,-0.0853,-0.0837,-0.0855,-0.0759,-0.0756,-0.0801,-0.0838,-0.0947,-0.093,-0.0779,-0.0778,-0.0778,0,-0.0821,-0.0869,-0.0938,-0.1019,-0.1038,-0.1074,-0.1124,-0.1153,-0.1145,-0.1137,-0.11,-0.1054,-0.1012,-0.0979,-0.09,-0.0916,-0.0867,-0.0819,-0.0816,-0.0828,-0.0799,-0.0875,-0.093,-0.1014,-0.0773,-0.0774,-0.0774,0,-0.0825,-0.0909,-0.0968,-0.0996,-0.1077,-0.1111,-0.1149,-0.1165,-0.1187,-0.1162,-0.1149,-0.1095,-0.1053,-0.0993,-0.091,-0.0903,-0.0822,-0.0792,-0.0791,-0.0794,-0.0851,-0.086,-0.0981,-0.0742,-0.0742,-0.0742,-0.0743,0,-0.0853,-0.0905,-0.0977,-0.1015,-0.1091,-0.1132,-0.1187,-0.121,-0.1218,-0.1223,-0.1174,-0.1149,-0.1053,-0.0994,-0.0927,-0.0866,-0.0837,-0.081,-0.0791,-0.0885,-0.0896,-0.094,-0.0944,-0.0741,-0.0741,-0.0742,-0.0742,0,-0.0859,-0.0903,-0.098,-0.1066,-0.1098,-0.115,-0.123,-0.1261,-0.1258,-0.1256,-0.1247,-0.1185,-0.1115,-0.1031,-0.0921,-0.0887,-0.0845,-0.0801,-0.093,-0.0929,-0.1022,-0.1025,-0.1004,-0.0947,-0.0804,-0.0805,-0.0806,0,-0.0871,-0.0908,-0.101,-0.1061,-0.1105,-0.1184,-0.1241,-0.1281,-0.1301,-0.1273,-0.1269,-0.12,-0.1161,-0.1048,-0.0991,-0.0917,-0.0877,-0.0955,-0.0961,-0.1065,-0.1052,-0.0992,-0.0939,-0.1068,-0.1071,-0.1074,-0.1076,0,-0.0892,-0.0921,-0.0984,-0.1083,-0.1156,-0.1236,-0.1306,-0.1328,-0.1349,-0.1343,-0.1312,-0.1276,-0.1198,-0.1198,-0.112,-0.1055,-0.1018,-0.1002,-0.1073,-0.1252,-0.1228,-0.1153,-0.1057,-0.1097,-0.1095,-0.1093,-0.1092,-0.1091,-0.0899,-0.0943,-0.1017,-0.1111,-0.1194,-0.1267,-0.1315,-0.1366,-0.1398,-0.1404,-0.137,-0.1373,-0.1408,-0.1331,-0.1265,-0.1303,-0.1144,-0.1314,-0.1301,-0.1224,-0.1206,-0.1172,-0.1212,-0.1211,-0.121,-0.1208,-0.1207,0,-0.0901,-0.0957,-0.1044,-0.1147,-0.1222,-0.1267,-0.1346,-0.1376,-0.1401,-0.1479,-0.1481,-0.1597,-0.1663,-0.1655,-0.1717,-0.1666,-0.1526,-0.1616,-0.159,-0.1505,-0.1482,-0.1538,-0.1698,-0.1698,-0.1698,-0.1698,-0.1698,-0.1698,-0.0905,-0.0973,-0.1021,-0.1141,-0.121,-0.1293,-0.1327,-0.1373,-0.1446,-0.159,-0.1709,-0.1787,-0.1897,-0.2003,-0.2059,-0.1991,-0.1862,-0.1842,-0.1693,-0.1782,-0.1754,-0.1727,-0.1786,-0.1995,-0.1995,-0.1723,-0.1722,-0.1721]}],[{"header":{"parameterUnit":"m.s-1","parameterCategory":2,"la1":30.2991,"la2":30.254,"lo1":-89.0895,"lo2":-89.0444,"dy":0.0017,"dx":0.0017,"nx":28,"ny":28,"refTime":"2026-02-01T03:00:00:Z","depth":"2","parameterNumber":2,"parameterNumberName":"U-component_of_CURRENTS"},"data":[0,0,0,0,0,0,0,0,0,0,0,0,0,0,0,0,0,0,0,0,0,0,0,0,0,0,0,0,0,0,0,0,0,0,0,0,0,0,0,0,0,0,0,0,0,0,0,0,0,0,0,0,0,0,0,0,0,0,-0.2398,-0.2399,0,-0.2451,-0.2452,-0.2452,-0.2436,-0.2434,-0.2433,-0.2432,-0.2487,-0.2489,-0.2492,0,0,0,0,0,0,0,0,0,0,0,0,0,-0.2365,-0.2365,-0.2398,-0.2399,-0.2399,-0.2451,-0.2452,-0.2453,-0.2436,-0.2434,-0.2433,-0.2432,-0.2486,-0.2489,-0.2492,0,0,0,0,0,0,0,0,0,0,0,0,0,-0.2395,-0.2365,-0.2398,-0.2397,-0.2397,-0.2451,-0.2452,-0.2453,-0.2436,-0.2434,-0.2433,-0.2431,-0.2485,-0.2489,-0.2493,-0.2552,0,0,-0.2504,-0.2506,0,0,0,0,0,0,0,0,-0.2394,-0.2397,-0.2396,-0.2397,-0.2397,-0.2434,-0.246,-0.2486,-0.2437,-0.2422,-0.2432,-0.243,-0.247,-0.2475,-0.249,-0.2555,-0.2557,-0.2505,-0.2507,-0.2509,-0.251,0,0,0,0,0,0,0,-0.2391,-0.2395,-0.242,-0.2397,-0.2398,-0.2422,-0.2423,-0.2465,-0.2456,-0.2423,-0.2422,-0.2427,-0.247,-0.2487,-0.2491,-0.2558,-0.2505,-0.2508,-0.251,-0.2512,-0.2652,-0.2654,0,0,0,0,0,0,-0.2381,-0.2393,-0.2418,-0.2421,-0.239,-0.2423,-0.2425,-0.2425,-0.2456,-0.2458,-0.2429,-0.2426,-0.2481,-0.2487,-0.2493,-0.2541,-0.2509,-0.2512,-0.2514,-0.2651,-0.2653,-0.2654,0,0,0,0,0,0,-0.238,-0.2383,-0.2416,-0.2408,-0.2414,-0.2425,-0.2425,-0.2427,-0.2435,-0.246,-0.2462,-0.2433,-0.248,-0.2488,-0.2526,-0.2544,-0.2514,-0.2517,-0.2649,-0.2651,-0.2653,-0.2653,0,0,0,0,0,0,-0.2379,-0.2382,-0.238,-0.2407,-0.2414,-0.2435,-0.2427,-0.2429,-0.2441,-0.2438,-0.2465,-0.2469,-0.2479,-0.252,-0.253,-0.2549,-0.2521,-0.2647,-0.265,-0.2653,-0.2651,-0.2655,-0.2658,0,0,0,0,0,-0.2378,-0.2376,-0.238,-0.2383,-0.241,-0.2435,-0.2441,-0.2444,-0.2443,-0.2445,-0.2469,-0.2467,-0.2544,-0.2525,-0.2536,-0.2556,-0.2646,-0.2649,-0.2652,-0.265,-0.2654,-0.2658,0,0,0,0,0,0,-0.2364,-0.2375,-0.2379,-0.2382,-0.2403,-0.2431,-0.2435,-0.2448,-0.2472,-0.2469,-0.249,-0.2496,-0.2537,-0.2553,-0.2532,-0.2606,-0.2594,-0.26,-0.2588,-0.2593,-0.2596,-0.2592,-0.2524,0,0,0,0,0,-0.2361,-0.2357,-0.2382,-0.2384,-0.2393,-0.2419,-0.2431,-0.2438,-0.2463,-0.247,-0.2491,-0.2522,-0.2565,-0.258,-0.2614,-0.266,-0.2624,-0.268,-0.2683,-0.2686,-0.2691,-0.2658,-0.2657,-0.2665,-0.2665,-0.2665,0,0,-0.2356,-0.2363,-0.236,-0.238,-0.2396,-0.2418,-0.242,-0.2437,-0.2463,-0.2477,-0.2511,-0.2537,-0.2581,-0.2624,-0.2644,-0.2635,-0.2658,-0.269,-0.2691,-0.2696,-0.2661,-0.2659,-0.2658,-0.2667,-0.2666,-0.2666,0,0,-0.2347,-0.2351,-0.2347,-0.2367,-0.239,-0.2413,-0.2418,-0.2449,-0.2464,-0.2507,-0.2528,-0.2562,-0.2617,-0.2651,-0.2678,-0.2727,-0.268,-0.2738,-0.2749,-0.2716,-0.2714,-0.2712,-0.2624,-0.2614,-0.2736,-0.2736,-0.2736,0,-0.2343,-0.2343,-0.2353,-0.2365,-0.2381,-0.2411,-0.2427,-0.2462,-0.2502,-0.2528,-0.2511,-0.2601,-0.2632,-0.2701,-0.2717,-0.2733,-0.2682,-0.2725,-0.2716,-0.2714,-0.2712,-0.2623,-0.2612,-0.2736,-0.2736,-0.2736,-0.2736,0,-0.2338,-0.2343,-0.2345,-0.2368,-0.2391,-0.2408,-0.2455,-0.2488,-0.251,-0.2543,-0.2598,-0.2633,-0.2684,-0.2702,-0.2728,-0.2751,-0.2706,-0.2721,-0.2695,-0.271,-0.2616,-0.2604,-0.2737,-0.2737,-0.2736,-0.2736,0,0,-0.2318,-0.2336,-0.2338,-0.235,-0.2393,-0.2413,-0.2468,-0.2527,-0.2564,-0.2597,-0.2624,-0.2708,-0.2717,-0.275,-0.2777,-0.2755,-0.2691,-0.2732,-0.273,-0.2625,-0.2561,-0.2475,-0.2453,-0.2691,-0.2691,-0.269,-0.2484,0,-0.2313,-0.2321,-0.234,-0.2369,-0.2381,-0.2434,-0.2485,-0.2546,-0.2585,-0.2619,-0.2663,-0.27,-0.274,-0.2749,-0.2745,-0.2707,-0.2668,-0.2742,-0.2581,-0.2576,-0.2482,-0.2442,-0.2293,-0.2093,-0.2473,-0.2471,-0.2469,0,-0.2305,-0.2311,-0.2323,-0.2371,-0.2383,-0.241,-0.2488,-0.2535,-0.2609,-0.2639,-0.2682,-0.2704,-0.2717,-0.2725,-0.2658,-0.2694,-0.2638,-0.2592,-0.2583,-0.25,-0.247,-0.2152,-0.2058,-0.245,-0.2452,-0.2453,-0.2454,0,-0.2278,-0.2306,-0.2311,-0.2325,-0.2385,-0.2411,-0.2449,-0.2533,-0.2577,-0.263,-0.2634,-0.2672,-0.2638,-0.2609,-0.2549,-0.2589,-0.2416,-0.2457,-0.2321,-0.2312,-0.2155,-0.2134,-0.2397,-0.2397,-0.2397,-0.2398,-0.2399,0,-0.2266,-0.2273,-0.2294,-0.23,-0.2327,-0.2377,-0.2421,-0.248,-0.2538,-0.2549,-0.2626,-0.2598,-0.2602,-0.2525,-0.2498,-0.2347,-0.2374,-0.23,-0.2257,-0.2148,-0.213,-0.2439,-0.2446,-0.239,-0.2392,-0.2393,-0.2395,0,-0.2234,-0.2247,-0.2257,-0.2298,-0.2308,-0.2324,-0.2386,-0.2416,-0.2481,-0.2476,-0.2482,-0.2497,-0.2381,-0.2363,-0.2253,-0.2235,-0.2136,-0.2084,-0.1928,-0.1874,-0.206,-0.2071,-0.1898,-0.1893,-0.1889,-0.1886,-0.1883,0,-0.2215,-0.2211,-0.2233,-0.2226,-0.2235,-0.2265,-0.2285,-0.2374,-0.2391,-0.2392,-0.2361,-0.2274,-0.219,-0.2005,-0.1926,-0.1814,-0.1956,-0.165,-0.1736,-0.2035,-0.2011,-0.2028,-0.2043,-0.1497,-0.1491,-0.1487,-0.1483,0,-0.2175,-0.2178,-0.2177,-0.2155,-0.2156,-0.2172,-0.219,-0.22,-0.226,-0.2235,-0.2137,-0.2062,-0.1886,-0.1682,-0.1568,-0.1518,-0.1668,-0.1551,-0.1866,-0.1675,-0.1648,-0.1629,-0.1658,-0.1441,-0.1445,-0.1448,-0.1451,-0.1452,-0.2131,-0.211,-0.2088,-0.2061,-0.2063,-0.2033,-0.1991,-0.1973,-0.1936,-0.1814,-0.1853,-0.1655,-0.1615,-0.1324,-0.1237,-0.119,-0.1334,-0.1328,-0.1345,-0.1367,-0.1386,-0.1358,-0.1094,-0.1096,-0.1098,-0.11,-0.1101,0,-0.204,-0.2018,-0.1988,-0.1932,-0.186,-0.1914,-0.1888,-0.1775,-0.1609,-0.1535,-0.1398,-0.1203,-0.1033,-0.1019,-0.0865,-0.0859,-0.0891,-0.0853,-0.0901,-0.0942,-0.0978,-0.0982,-0.058,-0.0578,-0.0577,-0.0576,0,0,-0.1989,-0.1911,-0.1879,-0.1719,-0.1681,-0.1535,-0.1482,-0.1326,-0.123,-0.103,-0.092,-0.0892,-0.0956,-0.0733,-0.0709,-0.0617,-0.0777,-0.0587,-0.1003,-0.1098,-0.1133,-0.1245,-0.1296,0,0,0,0,0]},{"header":{"parameterUnit":"m.s-1","parameterCategory":2,"la1":30.2991,"la2":30.254,"lo1":-89.0895,"lo2":-89.0444,"dy":0.0017,"dx":0.0017,"nx":28,"ny":28,"refTime":"2026-02-01T03:00:00:Z","depth":"2","parameterNumber":3,"parameterNumberName":"V-component_of_CURRENTS"},"data":[0,0,0,0,0,0,0,0,0,0,0,0,0,0,0,0,0,0,0,0,0,0,0,0,0,0,0,0,0,0,0,0,0,0,0,0,0,0,0,0,0,0,0,0,0,0,0,0,0,0,0,0,0,0,0,0,0,0,-0.074,-0.074,0,-0.0758,-0.0758,-0.0758,-0.0736,-0.0735,-0.0734,-0.0734,-0.0631,-0.0629,-0.0627,0,0,0,0,0,0,0,0,0,0,0,0,0,-0.0686,-0.0687,-0.074,-0.074,-0.0741,-0.0758,-0.0758,-0.0758,-0.0736,-0.0735,-0.0734,-0.0733,-0.0632,-0.0629,-0.0627,0,0,0,0,0,0,0,0,0,0,0,0,0,-0.0706,-0.0688,-0.074,-0.0732,-0.0732,-0.0758,-0.0758,-0.0758,-0.0736,-0.0735,-0.0734,-0.0733,-0.0633,-0.063,-0.0627,-0.0629,0,0,-0.0617,-0.0616,0,0,0,0,0,0,0,0,-0.0705,-0.0708,-0.0733,-0.0733,-0.0733,-0.0744,-0.0701,-0.0709,-0.0736,-0.0733,-0.0734,-0.0732,-0.0659,-0.0654,-0.066,-0.0624,-0.062,-0.0617,-0.0615,-0.0614,-0.0613,0,0,0,0,0,0,0,-0.0704,-0.0707,-0.0746,-0.0734,-0.0733,-0.0728,-0.073,-0.0703,-0.0699,-0.0734,-0.0732,-0.0736,-0.0658,-0.0663,-0.0657,-0.0618,-0.0617,-0.0614,-0.0612,-0.0611,-0.0559,-0.0559,0,0,0,0,0,0,-0.0705,-0.0706,-0.0745,-0.0746,-0.0717,-0.073,-0.0732,-0.0741,-0.0702,-0.0696,-0.0737,-0.0735,-0.0669,-0.0661,-0.0653,-0.0648,-0.0614,-0.0611,-0.0609,-0.0558,-0.0559,-0.0559,0,0,0,0,0,0,-0.0704,-0.0709,-0.0745,-0.0727,-0.0731,-0.0732,-0.0743,-0.0742,-0.0744,-0.0706,-0.0698,-0.074,-0.0668,-0.0657,-0.0636,-0.0643,-0.0609,-0.0606,-0.0558,-0.0558,-0.0559,-0.064,0,0,0,0,0,0,-0.0703,-0.0709,-0.0715,-0.0728,-0.0732,-0.0761,-0.0744,-0.0743,-0.0749,-0.0746,-0.0705,-0.0695,-0.0666,-0.0641,-0.0633,-0.0638,-0.0604,-0.0557,-0.0558,-0.0559,-0.0637,-0.0643,-0.0649,0,0,0,0,0,-0.0701,-0.0713,-0.0716,-0.072,-0.0742,-0.0762,-0.0764,-0.076,-0.075,-0.0756,-0.0732,-0.0696,-0.064,-0.064,-0.063,-0.0634,-0.0556,-0.0558,-0.0559,-0.0634,-0.0642,-0.0649,0,0,0,0,0,0,-0.069,-0.0713,-0.0716,-0.0733,-0.0748,-0.0759,-0.0766,-0.0764,-0.0754,-0.0746,-0.0707,-0.0696,-0.0679,-0.0647,-0.0647,-0.0621,-0.059,-0.059,-0.0651,-0.0658,-0.0664,-0.0673,-0.0601,0,0,0,0,0,-0.0694,-0.071,-0.0729,-0.0743,-0.0753,-0.0761,-0.0768,-0.0768,-0.0763,-0.0758,-0.0734,-0.0702,-0.0678,-0.066,-0.0634,-0.0623,-0.0593,-0.0617,-0.0623,-0.0629,-0.0629,-0.0596,-0.06,-0.0563,-0.0563,-0.0563,0,0,-0.0692,-0.0708,-0.0716,-0.0743,-0.0753,-0.078,-0.0762,-0.0778,-0.0798,-0.0746,-0.0757,-0.0723,-0.068,-0.0671,-0.0659,-0.0643,-0.0627,-0.063,-0.0635,-0.0632,-0.0598,-0.0601,-0.0604,-0.0563,-0.0563,-0.0563,0,0,-0.0704,-0.0714,-0.0735,-0.0755,-0.0779,-0.0789,-0.0795,-0.0811,-0.0815,-0.0824,-0.0789,-0.0761,-0.0734,-0.0705,-0.0686,-0.0707,-0.0662,-0.0697,-0.0733,-0.0702,-0.0705,-0.0707,-0.0692,-0.0691,-0.0698,-0.0699,-0.0699,0,-0.07,-0.0735,-0.0743,-0.0774,-0.0796,-0.0797,-0.0829,-0.0841,-0.0846,-0.0847,-0.0834,-0.0787,-0.075,-0.0729,-0.0741,-0.0721,-0.0702,-0.0712,-0.0711,-0.0712,-0.0713,-0.0696,-0.0695,-0.0703,-0.0702,-0.0702,-0.0701,0,-0.0732,-0.0764,-0.0779,-0.0823,-0.0845,-0.0872,-0.0895,-0.0911,-0.0913,-0.0911,-0.0895,-0.0852,-0.0818,-0.0804,-0.0782,-0.0768,-0.0755,-0.0726,-0.0696,-0.0722,-0.0702,-0.07,-0.0708,-0.0707,-0.0706,-0.0705,0,0,-0.0722,-0.0789,-0.0797,-0.0834,-0.0876,-0.0902,-0.0939,-0.0967,-0.0981,-0.0971,-0.0974,-0.0937,-0.09,-0.0876,-0.0834,-0.0808,-0.0805,-0.0779,-0.0775,-0.077,-0.0752,-0.0799,-0.0801,-0.078,-0.078,-0.0779,-0.0743,0,-0.0748,-0.0818,-0.0843,-0.0913,-0.0955,-0.0976,-0.1014,-0.1034,-0.1031,-0.1032,-0.0984,-0.0961,-0.0932,-0.0908,-0.0883,-0.0816,-0.08,-0.0819,-0.072,-0.0718,-0.0762,-0.0799,-0.0653,-0.0613,-0.074,-0.0739,-0.0739,0,-0.0778,-0.0826,-0.0896,-0.0977,-0.0996,-0.1033,-0.1083,-0.1113,-0.1107,-0.11,-0.1064,-0.1018,-0.0977,-0.0943,-0.0864,-0.088,-0.083,-0.0782,-0.0778,-0.079,-0.0761,-0.0602,-0.0603,-0.0734,-0.0735,-0.0735,-0.0735,0,-0.0783,-0.0867,-0.0926,-0.0954,-0.1036,-0.1071,-0.1109,-0.1127,-0.1149,-0.1126,-0.1113,-0.1061,-0.1018,-0.0958,-0.0874,-0.0867,-0.0785,-0.0755,-0.0753,-0.0755,-0.0594,-0.0584,-0.0704,-0.0704,-0.0705,-0.0705,-0.0705,0,-0.0812,-0.0863,-0.0936,-0.0973,-0.105,-0.1091,-0.1148,-0.1172,-0.1181,-0.1187,-0.1139,-0.1114,-0.1018,-0.0958,-0.0891,-0.0829,-0.08,-0.0772,-0.0752,-0.0622,-0.0616,-0.0684,-0.0682,-0.0703,-0.0704,-0.0704,-0.0704,0,-0.0818,-0.0862,-0.0939,-0.1026,-0.1058,-0.111,-0.1191,-0.1223,-0.1222,-0.1221,-0.1212,-0.1151,-0.1079,-0.0995,-0.0884,-0.085,-0.078,-0.0761,-0.0635,-0.0605,-0.0767,-0.0769,-0.0761,-0.0762,-0.0764,-0.0765,-0.0765,0,-0.083,-0.0868,-0.097,-0.102,-0.1065,-0.1144,-0.1202,-0.1243,-0.1264,-0.1237,-0.1233,-0.1164,-0.1111,-0.0996,-0.0856,-0.0757,-0.0804,-0.0648,-0.0619,-0.0793,-0.0774,-0.0774,-0.0775,-0.0425,-0.0423,-0.0421,-0.042,0,-0.0852,-0.0881,-0.0944,-0.1043,-0.1116,-0.1197,-0.1267,-0.129,-0.1312,-0.1288,-0.1257,-0.1208,-0.1057,-0.0877,-0.0766,-0.0691,-0.066,-0.062,-0.0787,-0.047,-0.0483,-0.0463,-0.0473,-0.0405,-0.0407,-0.0408,-0.0409,-0.0409,-0.086,-0.0904,-0.0977,-0.1071,-0.1154,-0.1227,-0.1275,-0.1252,-0.1258,-0.1139,-0.1197,-0.1019,-0.0937,-0.0655,-0.0588,-0.0499,-0.0563,-0.0531,-0.0531,-0.0534,-0.0539,-0.0557,-0.0494,-0.0496,-0.0497,-0.0499,-0.05,0,-0.0841,-0.0917,-0.1005,-0.1107,-0.1148,-0.1228,-0.1305,-0.1224,-0.113,-0.1011,-0.0912,-0.0713,-0.056,-0.0488,-0.0294,-0.0298,-0.0223,-0.0323,-0.0209,-0.0224,-0.0236,-0.0223,-0.0095,-0.0094,-0.0094,-0.0093,0,0,-0.084,-0.0895,-0.0943,-0.1037,-0.1128,-0.1131,-0.1162,-0.1006,-0.0872,-0.0658,-0.0523,-0.0447,-0.0454,-0.0259,-0.0226,-0.0144,-0.0183,-0.0117,-0.0431,-0.031,-0.0322,-0.0337,-0.0332,0,0,0,0,0]}],[{"header":{"parameterUnit":"m.s-1","parameterCategory":2,"la1":30.2991,"la2":30.254,"lo1":-89.0895,"lo2":-89.0444,"dy":0.0017,"dx":0.0017,"nx":28,"ny":28,"refTime":"2026-02-01T03:00:00:Z","depth":"4","parameterNumber":2,"parameterNumberName":"U-component_of_CURRENTS"},"data":[0,0,0,0,0,0,0,0,0,0,0,0,0,0,0,0,0,0,0,0,0,0,0,0,0,0,0,0,0,0,0,0,0,0,0,0,0,0,0,0,0,0,0,0,0,0,0,0,0,0,0,0,0,0,0,0,0,0,-0.1496,-0.1496,0,-0.1527,-0.1527,-0.1527,-0.1549,-0.1549,-0.1549,-0.1549,-0.1624,-0.1626,-0.1628,0,0,0,0,0,0,0,0,0,0,0,0,0,-0.1469,-0.1469,-0.1496,-0.1496,-0.1497,-0.1526,-0.1527,-0.1527,-0.1549,-0.1549,-0.1549,-0.1549,-0.1624,-0.1626,-0.1628,0,0,0,0,0,0,0,0,0,0,0,0,0,-0.1489,-0.1469,-0.1496,-0.1511,-0.1512,-0.1526,-0.1527,-0.1528,-0.1549,-0.1549,-0.1549,-0.1549,-0.1623,-0.1626,-0.1629,-0.1643,0,0,-0.1637,-0.1639,0,0,0,0,0,0,0,0,-0.1488,-0.149,-0.1508,-0.151,-0.1511,-0.1534,-0.1545,-0.1568,-0.1549,-0.1536,-0.1549,-0.155,-0.1598,-0.1603,-0.1608,-0.1646,-0.1649,-0.1638,-0.1639,-0.1641,-0.1641,0,0,0,0,0,0,0,-0.1486,-0.1489,-0.1509,-0.1509,-0.1511,-0.152,-0.1523,-0.1549,-0.1567,-0.1537,-0.1538,-0.1541,-0.1599,-0.1605,-0.161,-0.165,-0.1638,-0.164,-0.1642,-0.1643,-0.175,-0.1751,0,0,0,0,0,0,-0.148,-0.1487,-0.1508,-0.151,-0.1499,-0.152,-0.1523,-0.1527,-0.1565,-0.1571,-0.154,-0.1542,-0.16,-0.1607,-0.1613,-0.1662,-0.164,-0.1643,-0.1645,-0.1749,-0.175,-0.1751,0,0,0,0,0,0,-0.148,-0.1482,-0.1507,-0.1499,-0.1502,-0.152,-0.1524,-0.1527,-0.1555,-0.1568,-0.1574,-0.1567,-0.1601,-0.1609,-0.1647,-0.1664,-0.1644,-0.1647,-0.1747,-0.1749,-0.1751,-0.1741,0,0,0,0,0,0,-0.1479,-0.1482,-0.1496,-0.1498,-0.1503,-0.1522,-0.1524,-0.1528,-0.1554,-0.1557,-0.1592,-0.1598,-0.1602,-0.1643,-0.165,-0.1668,-0.1649,-0.1746,-0.1748,-0.175,-0.174,-0.1742,-0.1744,0,0,0,0,0,-0.1478,-0.1487,-0.1497,-0.15,-0.1517,-0.1523,-0.1526,-0.154,-0.1556,-0.1567,-0.1591,-0.1598,-0.1662,-0.1646,-0.1654,-0.1673,-0.1745,-0.1747,-0.175,-0.1739,-0.1742,-0.1744,0,0,0,0,0,0,-0.1485,-0.149,-0.1501,-0.1513,-0.1523,-0.1526,-0.1542,-0.1555,-0.1583,-0.1595,-0.161,-0.1617,-0.1657,-0.1672,-0.1654,-0.1712,-0.1706,-0.171,-0.1695,-0.1698,-0.17,-0.1664,-0.1652,0,0,0,0,0,-0.1493,-0.1502,-0.1508,-0.1522,-0.1528,-0.1543,-0.1554,-0.1564,-0.1581,-0.1595,-0.162,-0.165,-0.1671,-0.169,-0.1713,-0.1746,-0.1738,-0.1766,-0.1768,-0.177,-0.1747,-0.1763,-0.1764,-0.176,-0.176,-0.1759,0,0,-0.1502,-0.1506,-0.1513,-0.1525,-0.1536,-0.1545,-0.1551,-0.1571,-0.1583,-0.16,-0.1639,-0.1661,-0.1683,-0.1713,-0.1733,-0.1729,-0.1767,-0.1773,-0.1774,-0.175,-0.1766,-0.1766,-0.1766,-0.1761,-0.1761,-0.1761,0,0,-0.1508,-0.1527,-0.1533,-0.1542,-0.1559,-0.1564,-0.1575,-0.1594,-0.1611,-0.1643,-0.1658,-0.1682,-0.1732,-0.1734,-0.1744,-0.1775,-0.1779,-0.1804,-0.1783,-0.18,-0.1799,-0.1799,-0.1782,-0.178,-0.1804,-0.1804,-0.1804,0,-0.1523,-0.1526,-0.1537,-0.1543,-0.1552,-0.1575,-0.1582,-0.16,-0.1632,-0.1629,-0.1658,-0.1698,-0.1731,-0.1734,-0.175,-0.1776,-0.178,-0.1768,-0.1799,-0.1799,-0.1799,-0.1781,-0.1779,-0.1804,-0.1804,-0.1804,-0.1804,0,-0.1521,-0.1536,-0.1541,-0.1555,-0.1567,-0.1579,-0.1596,-0.1617,-0.1644,-0.1642,-0.1663,-0.1699,-0.1708,-0.174,-0.1758,-0.1773,-0.1773,-0.1799,-0.1784,-0.1798,-0.1779,-0.1777,-0.1804,-0.1804,-0.1804,-0.1804,0,0,-0.1518,-0.1537,-0.1542,-0.1546,-0.1574,-0.1576,-0.16,-0.1599,-0.1587,-0.1631,-0.1615,-0.1666,-0.1669,-0.1681,-0.1712,-0.1735,-0.1749,-0.1771,-0.1772,-0.1737,-0.1766,-0.1632,-0.1617,-0.1791,-0.1791,-0.1791,-0.175,0,-0.1515,-0.1523,-0.1536,-0.1548,-0.1551,-0.1574,-0.1581,-0.1585,-0.1589,-0.1581,-0.1603,-0.1606,-0.1652,-0.1661,-0.169,-0.1746,-0.1745,-0.1755,-0.1772,-0.1771,-0.1637,-0.161,-0.179,-0.1749,-0.1748,-0.1748,-0.1748,0,-0.1501,-0.1508,-0.1521,-0.1525,-0.1528,-0.1544,-0.1535,-0.1543,-0.1527,-0.1523,-0.1517,-0.1529,-0.156,-0.1606,-0.1665,-0.1677,-0.1707,-0.1743,-0.1744,-0.1612,-0.1632,-0.1738,-0.1744,-0.1744,-0.1744,-0.1745,-0.1745,0,-0.1469,-0.1489,-0.1499,-0.1507,-0.1522,-0.1532,-0.154,-0.1524,-0.1496,-0.1484,-0.1456,-0.1481,-0.1512,-0.1558,-0.163,-0.1658,-0.1685,-0.1731,-0.1617,-0.1608,-0.1747,-0.1749,-0.1735,-0.1735,-0.1736,-0.1736,-0.1736,0,-0.1439,-0.1447,-0.1491,-0.1494,-0.1489,-0.1512,-0.1483,-0.1484,-0.145,-0.1397,-0.1427,-0.1401,-0.1512,-0.1536,-0.1594,-0.1581,-0.1651,-0.1579,-0.158,-0.1745,-0.1747,-0.1745,-0.1747,-0.1734,-0.1734,-0.1735,-0.1735,0,-0.1393,-0.1427,-0.1438,-0.1469,-0.1476,-0.1476,-0.1451,-0.1403,-0.1399,-0.1338,-0.1333,-0.1355,-0.1391,-0.1448,-0.1531,-0.152,-0.1532,-0.1504,-0.1636,-0.1651,-0.1451,-0.1453,-0.1361,-0.1356,-0.1351,-0.1348,-0.1344,0,-0.1365,-0.1371,-0.1418,-0.1417,-0.1437,-0.1431,-0.1399,-0.1381,-0.1319,-0.13,-0.1257,-0.128,-0.1296,-0.128,-0.1377,-0.1399,-0.1409,-0.1384,-0.1438,-0.1398,-0.1409,-0.1418,-0.1426,-0.1337,-0.1336,-0.1335,-0.1334,0,-0.1308,-0.1347,-0.1355,-0.1359,-0.135,-0.1305,-0.1272,-0.121,-0.118,-0.1193,-0.1135,-0.113,-0.1149,-0.1208,-0.121,-0.1247,-0.1387,-0.1338,-0.1348,-0.1399,-0.1368,-0.1386,-0.1399,-0.1318,-0.132,-0.1322,-0.1323,0,-0.1272,-0.1268,-0.129,-0.1271,-0.1261,-0.1183,-0.1171,-0.1096,-0.104,-0.1022,-0.1022,-0.1068,-0.1137,-0.1125,-0.1144,-0.1139,-0.115,-0.1139,-0.1161,-0.1179,-0.1141,-0.1076,-0.0905,0,0,0,0,0,-0.1224,-0.1199,-0.1184,-0.1149,-0.1133,-0.1115,-0.1072,-0.1053,-0.104,-0.0962,-0.0974,-0.098,-0.0983,-0.1024,-0.0988,-0.1076,-0.1162,-0.103,-0.1164,-0.1232,-0.125,-0.1224,0,0,0,0,0,0,-0.1187,-0.1186,-0.1156,-0.1047,-0.1,-0.0944,-0.0916,-0.0909,-0.0859,-0.0884,-0.0898,-0.0926,-0.0957,-0.1002,-0.0977,-0.0984,-0.1047,-0.1063,-0.106,-0.1222,-0.1238,-0.1253,-0.1232,0,0,0,0,0]},{"header":{"parameterUnit":"m.s-1","parameterCategory":2,"la1":30.2991,"la2":30.254,"lo1":-89.0895,"lo2":-89.0444,"dy":0.0017,"dx":0.0017,"nx":28,"ny":28,"refTime":"2026-02-01T03:00:00:Z","depth":"4","parameterNumber":3,"parameterNumberName":"V-component_of_CURRENTS"},"data":[0,0,0,0,0,0,0,0,0,0,0,0,0,0,0,0,0,0,0,0,0,0,0,0,0,0,0,0,0,0,0,0,0,0,0,0,0,0,0,0,0,0,0,0,0,0,0,0,0,0,0,0,0,0,0,0,0,0,-0.0079,-0.008,0,-0.0102,-0.0102,-0.0103,-0.0096,-0.0095,-0.0095,-0.0094,-0.0072,-0.0072,-0.0072,0,0,0,0,0,0,0,0,0,0,0,0,0,-0.004,-0.004,-0.0079,-0.008,-0.008,-0.0102,-0.0102,-0.0103,-0.0096,-0.0095,-0.0095,-0.0094,-0.0072,-0.0072,-0.0072,0,0,0,0,0,0,0,0,0,0,0,0,0,-0.0059,-0.0041,-0.0079,-0.0079,-0.0079,-0.0102,-0.0102,-0.0103,-0.0096,-0.0095,-0.0094,-0.0094,-0.0072,-0.0072,-0.0072,-0.0086,0,0,-0.0071,-0.0071,0,0,0,0,0,0,0,0,-0.0058,-0.0061,-0.0079,-0.0079,-0.0079,-0.0095,-0.008,-0.0095,-0.0096,-0.009,-0.0094,-0.0093,-0.0076,-0.0076,-0.0082,-0.0085,-0.0084,-0.0071,-0.0071,-0.0071,-0.0071,0,0,0,0,0,0,0,-0.0057,-0.006,-0.0088,-0.0079,-0.0079,-0.0081,-0.0083,-0.0083,-0.0086,-0.009,-0.009,-0.0092,-0.0076,-0.0083,-0.0082,-0.0083,-0.0071,-0.0071,-0.0071,-0.0071,-0.0117,-0.0118,0,0,0,0,0,0,-0.0054,-0.0059,-0.0088,-0.0089,-0.0066,-0.0082,-0.0084,-0.0091,-0.0087,-0.0086,-0.0093,-0.0092,-0.0083,-0.0082,-0.0081,-0.012,-0.0071,-0.0071,-0.0071,-0.0116,-0.0117,-0.0119,0,0,0,0,0,0,-0.0053,-0.0057,-0.0087,-0.0074,-0.0078,-0.0084,-0.0091,-0.0092,-0.01,-0.009,-0.0088,-0.0101,-0.0083,-0.0081,-0.0099,-0.0118,-0.0071,-0.0071,-0.0114,-0.0116,-0.0118,-0.0183,0,0,0,0,0,0,-0.0052,-0.0056,-0.0063,-0.0074,-0.0078,-0.0108,-0.0092,-0.0093,-0.0103,-0.0102,-0.0096,-0.0093,-0.0082,-0.0099,-0.0099,-0.0117,-0.0071,-0.0112,-0.0115,-0.0117,-0.018,-0.0187,-0.0194,0,0,0,0,0,-0.0051,-0.0062,-0.0064,-0.0067,-0.0087,-0.0109,-0.0112,-0.0113,-0.0104,-0.0116,-0.0118,-0.0093,-0.0114,-0.0101,-0.0099,-0.0118,-0.0111,-0.0114,-0.0117,-0.0176,-0.0186,-0.0194,0,0,0,0,0,0,-0.0047,-0.0063,-0.0065,-0.008,-0.0097,-0.0108,-0.0118,-0.0118,-0.013,-0.0128,-0.0114,-0.0113,-0.0135,-0.012,-0.0106,-0.0139,-0.0107,-0.011,-0.0152,-0.0161,-0.0168,-0.0169,-0.007,0,0,0,0,0,-0.0051,-0.0064,-0.008,-0.0093,-0.0103,-0.0112,-0.0121,-0.0125,-0.0135,-0.0139,-0.0138,-0.0138,-0.0147,-0.0149,-0.0153,-0.0173,-0.0146,-0.0183,-0.019,-0.0197,-0.0197,-0.0185,-0.0191,-0.0129,-0.0129,-0.0129,0,0,-0.0052,-0.0064,-0.007,-0.0094,-0.0106,-0.0134,-0.0116,-0.0135,-0.0164,-0.0134,-0.0171,-0.0164,-0.0159,-0.0186,-0.0193,-0.0175,-0.02,-0.02,-0.0206,-0.0203,-0.0188,-0.0194,-0.0199,-0.0131,-0.013,-0.013,0,0,-0.0067,-0.0075,-0.0094,-0.0116,-0.0139,-0.015,-0.0158,-0.0177,-0.0191,-0.0226,-0.0212,-0.0221,-0.0236,-0.0237,-0.0238,-0.0288,-0.0241,-0.0285,-0.0321,-0.0309,-0.0314,-0.0318,-0.0287,-0.0287,-0.0287,-0.0287,-0.0287,0,-0.0069,-0.01,-0.0104,-0.0135,-0.016,-0.016,-0.0197,-0.0215,-0.024,-0.0254,-0.0247,-0.0271,-0.0264,-0.0289,-0.0308,-0.0304,-0.028,-0.0288,-0.0318,-0.0321,-0.0324,-0.0291,-0.0291,-0.0291,-0.029,-0.029,-0.029,0,-0.0103,-0.0134,-0.0149,-0.0192,-0.0218,-0.0249,-0.0277,-0.0303,-0.0316,-0.0326,-0.0356,-0.0353,-0.0359,-0.0363,-0.0353,-0.0371,-0.0341,-0.0329,-0.0293,-0.0334,-0.0297,-0.0295,-0.0296,-0.0294,-0.0293,-0.0293,0,0,-0.0096,-0.016,-0.0169,-0.0206,-0.0255,-0.0282,-0.0333,-0.0375,-0.0397,-0.042,-0.0447,-0.0467,-0.0443,-0.0443,-0.0424,-0.0417,-0.0417,-0.0384,-0.0381,-0.0349,-0.0375,-0.0349,-0.0344,-0.0407,-0.0407,-0.0407,-0.034,0,-0.0126,-0.0193,-0.0221,-0.0296,-0.0337,-0.0367,-0.0413,-0.0448,-0.0465,-0.0488,-0.0486,-0.0498,-0.048,-0.0475,-0.047,-0.0431,-0.0416,-0.0435,-0.0344,-0.0341,-0.031,-0.0343,-0.0408,-0.0338,-0.0338,-0.0337,-0.0337,0,-0.0155,-0.0201,-0.0274,-0.0357,-0.0377,-0.0421,-0.0486,-0.0526,-0.0551,-0.0559,-0.0563,-0.0545,-0.0545,-0.0518,-0.0476,-0.0487,-0.0437,-0.0403,-0.0399,-0.035,-0.0313,-0.029,-0.0334,-0.0334,-0.0334,-0.0334,-0.0335,0,-0.0154,-0.0243,-0.0304,-0.0335,-0.0419,-0.0462,-0.0506,-0.0545,-0.0569,-0.059,-0.0588,-0.0587,-0.0577,-0.0534,-0.047,-0.0469,-0.041,-0.0395,-0.0322,-0.0318,-0.033,-0.0326,-0.0357,-0.0357,-0.0357,-0.0357,-0.0358,0,-0.0179,-0.0231,-0.0311,-0.0348,-0.0423,-0.0477,-0.0538,-0.0573,-0.06,-0.0612,-0.0613,-0.0609,-0.058,-0.0541,-0.048,-0.0399,-0.0415,-0.033,-0.0306,-0.0359,-0.0359,-0.0328,-0.0325,-0.0355,-0.0355,-0.0356,-0.0356,0,-0.0171,-0.0221,-0.0296,-0.0391,-0.0425,-0.0477,-0.0559,-0.0585,-0.061,-0.0623,-0.0625,-0.0624,-0.0579,-0.053,-0.0458,-0.0406,-0.0333,-0.0293,-0.0346,-0.0325,-0.0241,-0.0243,-0.0206,-0.0205,-0.0204,-0.0203,-0.0202,0,-0.0175,-0.021,-0.0314,-0.0355,-0.0404,-0.0483,-0.0528,-0.0585,-0.0599,-0.0622,-0.0616,-0.0595,-0.058,-0.0461,-0.0421,-0.0311,-0.0289,-0.0244,-0.0255,-0.0249,-0.0229,-0.0232,-0.0236,-0.02,-0.02,-0.02,-0.02,0,-0.0179,-0.0209,-0.0266,-0.0344,-0.0407,-0.0473,-0.0536,-0.0543,-0.0588,-0.0609,-0.0588,-0.0547,-0.05,-0.0443,-0.0364,-0.0285,-0.0278,-0.0232,-0.0234,-0.0243,-0.0242,-0.0223,-0.0228,-0.0196,-0.0196,-0.0197,-0.0197,0,-0.0173,-0.0203,-0.0265,-0.0333,-0.04,-0.0443,-0.0489,-0.0514,-0.0537,-0.0554,-0.055,-0.0518,-0.0521,-0.0427,-0.0354,-0.0283,-0.0257,-0.022,-0.0222,-0.0226,-0.0259,-0.0262,-0.0204,0,0,0,0,0,-0.0167,-0.0192,-0.0251,-0.0323,-0.0379,-0.0409,-0.048,-0.0513,-0.055,-0.0522,-0.0534,-0.0486,-0.0402,-0.0388,-0.0307,-0.0326,-0.0244,-0.0227,-0.0202,-0.0174,-0.0179,-0.0214,0,0,0,0,0,0,-0.0166,-0.0211,-0.0238,-0.0288,-0.0315,-0.0374,-0.0409,-0.044,-0.0431,-0.0463,-0.0426,-0.0431,-0.036,-0.0427,-0.0287,-0.0274,-0.0239,-0.0204,-0.0201,-0.0172,-0.0176,-0.0179,-0.0217,0,0,0,0,0]}]]